Weather History for Ubon Ratchathani, Thailand

Change the Weather History Date:

Sunday, November 11, 2012

  Actual Average Record
Temperature  
Mean Temperature 88 °F -  
Max Temperature 96 °F 87 °F - ()
Min Temperature 79 °F 66 °F - ()
Cooling Degree Days 22    
Growing Degree Days 38 (Base 50)    
Moisture  
Dew Point 75 °F    
Average Humidity 72    
Maximum Humidity 94    
Minimum Humidity 44    
Precipitation  
Precipitation 0.00 in 0.02 in - ()
Sea Level Pressure  
Sea Level Pressure 29.81 in    
Wind  
Wind Speed 3 mph ()    
Max Wind Speed 7 mph    
Max Gust Speed -    
Visibility 5.6 miles    
Events      
T = Trace of Precipitation, MM = Missing Value Source: Averaged Metar Reports

Daily Weather History Graph

Daily Weather History Graph

Search for Another Location

Airport:

Trip Planner

Search our weather history database for the weather conditions in past years. The results will help you decide how hot, cold, wet, or windy it might be!

Date:

Astronomy

Nov. 11, 2012 Rise Set
Actual Time 6:00 AM ICT 5:28 PM ICT
Civil Twilight 5:38 AM ICT 5:50 PM ICT
Nautical Twilight 5:12 AM ICT 6:16 PM ICT
Astronomical Twilight 4:46 AM ICT 6:42 PM ICT
Moon 3:02 AM ICT (11/11) 3:11 PM ICT (11/11)
Length of Visible Light 12h 12m
Length of Day
11h 27m
Waning Crescent, 11% of the Moon is Illuminated
Nov 11
Waning Crescent
Nov 14
New
Nov 20
First Quarter
Nov 28
Full
Dec 6
Last Quarter

Hourly Weather History & Observations

Time (ICT) Temp. Heat Index Dew Point Humidity Pressure Visibility Wind Dir Wind Speed Gust Speed Precip Events Conditions
12:00 AM 82.4 °F 89.5 °F 75.2 °F 79% 29.80 in 5.6 mi SSW 2.3 mph - N/A   Mostly Cloudy
1:00 AM 82 °F - 75 °F 74% 29.80 in 6 mi SSW 3.5 mph - -   Mist
1:00 AM 82.4 °F 89.5 °F 75.2 °F 79% 29.77 in 5.6 mi SSW 3.5 mph - N/A   Scattered Clouds
2:00 AM 80.6 °F 86.2 °F 75.2 °F 84% 29.77 in 5.6 mi NE 2.3 mph - N/A   Scattered Clouds
4:00 AM 80.6 °F 87.1 °F 77.0 °F 89% 29.77 in 5.6 mi Calm Calm - N/A   Mostly Cloudy
5:00 AM 78.8 °F - 77.0 °F 94% 29.80 in 5.0 mi Calm Calm - N/A   Mostly Cloudy
6:00 AM 78.8 °F - 77.0 °F 94% 29.83 in 5.0 mi NE 2.3 mph - N/A   Mostly Cloudy
6:30 AM 80.6 °F 87.1 °F 77.0 °F 89% 29.83 in 5.0 mi Calm Calm - N/A   Mostly Cloudy
7:00 AM 81 °F - 77 °F 83% 29.86 in 5 mi Calm Calm - -   Mist
7:00 AM 80.6 °F 87.1 °F 77.0 °F 89% 29.83 in 5.0 mi Calm Calm - N/A   Mostly Cloudy
8:00 AM 84.2 °F 94.1 °F 77.0 °F 79% 29.86 in 5.6 mi SSE 5.8 mph - N/A   Mostly Cloudy
9:00 AM 86.0 °F 95.1 °F 75.2 °F 70% 29.89 in 6.2 mi South 5.8 mph - N/A   Mostly Cloudy
10:00 AM 89.6 °F 99.8 °F 75.2 °F 62% 29.89 in 6.2 mi SE 4.6 mph - N/A   Mostly Cloudy
11:00 AM 91.4 °F 102.5 °F 75.2 °F 59% 29.86 in 6.2 mi ENE 4.6 mph - N/A   Overcast
12:00 PM 93.2 °F 105.0 °F 75.2 °F 56% 29.83 in 6.2 mi ENE 4.6 mph - N/A   Overcast
1:00 PM 93 °F - 73 °F 44% 29.79 in 6 mi NE 4.6 mph - -   Mostly Cloudy
1:00 PM 93.2 °F 102.4 °F 73.4 °F 52% 29.77 in 6.2 mi NE 4.6 mph - N/A   Mostly Cloudy
3:00 PM 89.6 °F 94.7 °F 69.8 °F 52% 29.74 in 6.2 mi North 5.8 mph - N/A   Overcast
4:00 PM 89.6 °F 99.8 °F 75.2 °F 62% 29.74 in 6.2 mi North 5.8 mph - N/A   Overcast
5:00 PM 87.8 °F 97.6 °F 75.2 °F 66% 29.77 in 6.2 mi NNE 3.5 mph - N/A   Overcast
5:30 PM 87.8 °F 97.6 °F 75.2 °F 66% 29.77 in 5.6 mi ENE 3.5 mph - N/A   Overcast
6:00 PM 86.0 °F 95.1 °F 75.2 °F 70% 29.77 in 5.6 mi ENE 1.2 mph - N/A   Overcast
7:00 PM 85 °F - 75 °F 66% 29.81 in 5 mi North 4.6 mph - -   Mist
7:00 PM 84.2 °F 92.3 °F 75.2 °F 74% 29.80 in 5.0 mi North 4.6 mph - N/A   Overcast
8:00 PM 84.2 °F 89.6 °F 71.6 °F 66% 29.83 in 5.0 mi NE 6.9 mph - N/A   Mostly Cloudy
9:00 PM 82.4 °F 86.3 °F 69.8 °F 66% 29.83 in 5.0 mi NE 5.8 mph - N/A   Mostly Cloudy
10:00 PM 80.6 °F 83.9 °F 69.8 °F 70% 29.86 in 5.6 mi NE 6.9 mph - N/A   Mostly Cloudy
11:00 PM 80.6 °F 83.9 °F 69.8 °F 70% 29.86 in 5.6 mi NNE 5.8 mph - N/A   Mostly Cloudy